loading
DOY 175 | 2024-06-23T11:08:22Z

ELECTRON KICK STAGE R/B, 59967

Orbit data source: Space-Track

ELECTRON KICK STAGE R/B, 59967 is space debris in LEO originally from a launch on Wed, 05 Jun 2024 UTC launched from the Rocket Lab Launch Complex (RLLC). Debris objects in space refer to the collection of defunct objects orbiting the Earth. Examples of debris include non-operational satellites, rocket bodies, and fragments generated from explosions, collisions, or faulty payload assembly.

Loading next visibility...
Loading greatness...
ELECTRON KICK STAGE R/B details
NORAD ID59967
COSPAR ID
2024-108C
Orbit
LEO
Last TLE update12 hours ago
Origin
Flag of USRocket Lab (US)
ManufacturerRocket Lab
BusKick Stage
MotorCurie
Mass~50 kg wet, ~50 kg dry
Launch date (UTC)
2024-06-05 (3 weeks ago)
Launch vehicleUnknown
Launch site
Rocket Lab Launch Complex (RLLC)
Object type
Payload
Rocket body
Debris
Radar Cross SectionMedium (>0.1 m² and <1 m²)
Predictive object data (real-time)
Latitude-29.01929°
Longitude78.89767°
Altitude465.576 km
Speed7.651 km/s
Apparent Right ascension21h 01m 17s
Apparent Declination-81° 12' 47"
Sunlit
Object is in full shadow
Predictive observer data (real-time)
Local Sidereal Time22:16:21
Azimuth183.306° SSW
Elevation-31.547°
Doppler factor1
Orbital elements
Apogee521.378 km
Perigee451.025 km
Semi-major axis6,864.339 km
Eccentricity0.0051245
Inclination97.438°
RAAN325.9335°
Arg. of periapsis322.0304°
True anomaly38.09369°
Mean anomaly37.7325°
Mean motion3.81632 °/min
BSTAR0.00064922
Period94.33 mins
Definitive object data (Epoch: 2024-06-22T22:40:19.615Z)
Latitude-0.00005°
Longitude74.25104°
Altitude464.568 km
Speed7.65 km/s
True Right ascension21h 43m 44s
True Declination0° 00' 00"
Sunlit
Object was in full shadow at TLE epoch
TLE from 12 hours ago
0 ELECTRON KICK STAGE R/B
1 59967U 24108C   24174.94467148  .00017030  00000-0  64922-3 0  9999
2 59967  97.4380 325.9335 0051245 322.0304  37.7325 15.25514162  2708
Epoch: 2024-06-22T22:40Z
No data available
Other satellites on launch #108 in the year 2024 (2024-06-05 UTC)

ELECTRON KICK STAGE R/B Visibility forecast

Observer location: 39.9160978°, -105.1181434, 0m alt.

ELECTRON KICK STAGE R/B is not visible in the next 10 days
Span
Click to sort rows by Start time (UTC) header in descending order
Start Az.
Max El. time (UTC)
Max El. Az.
Max El.
End time (UTC)
End Az.